When you browse on this site, cookies collect data to enhance your experience and personalize the content and advertising you see.
Visit our Privacy Policy to learn more. By continuing to use the site, you agree to this use of cookies and data.
  • In Romania
  • List of Countries
  • For 7 days
  • Water Temperature
  • Satellite Maps
  • Weather Map
  • Weather Widgets
  • user-avatar
    Login

    Hourly Weather Kastoria

    Today, 23 May, Thursday

    Time Temperature Precipitation Wind Pressure Humidity
    00:00 +12°C° 0 mm 2 mps 701 mmHg 90%
    01:00 +12°C° 0 mm 2 mps 701 mmHg 92%
    02:00 +12°C° 0 mm 2 mps 701 mmHg 92%
    03:00 +10°C° 0 mm 2 mps 701 mmHg 91%
    04:00 +11°C° 0 mm 1 mps 701 mmHg 91%
    05:00 +13°C° 0 mm 1 mps 701 mmHg 83%
    06:00 +14°C° 0 mm 2 mps 701 mmHg 75%
    07:00 +16°C° 0 mm 2 mps 701 mmHg 68%
    08:00 +17°C° 0 mm 2 mps 701 mmHg 62%
    09:00 +19°C° 0 mm 2 mps 702 mmHg 57%
    10:00 +20°C° 0 mm 2 mps 702 mmHg 51%
    11:00 +22°C° 0 mm 1 mps 702 mmHg 49%
    12:00 +22°C° 0 mm 1 mps 701 mmHg 46%
    13:00 +23°C° 0 mm 1 mps 701 mmHg 44%
    14:00 +23°C° 0 mm 1 mps 701 mmHg 47%
    15:00 +22°C° 0 mm 1 mps 701 mmHg 51%
    16:00 +22°C° 0 mm 1 mps 700 mmHg 55%
    17:00 +19°C° 0.3 mm 2 mps 700 mmHg 61%
    18:00 +17°C° 0.3 mm 2 mps 700 mmHg 67%
    19:00 +15°C° 0.3 mm 2 mps 700 mmHg 73%
    20:00 +14°C° 0.2 mm 2 mps 700 mmHg 77%
    21:00 +13°C° 0.2 mm 2 mps 700 mmHg 81%
    22:00 +13°C° 0.2 mm 2 mps 700 mmHg 85%
    23:00 +12°C° 0 mm 2 mps 700 mmHg 87%

    Tomorrow, 24 May, Friday

    Time Temperature Precipitation Wind Pressure Humidity
    00:00 +12°C° 0 mm 2 mps 700 mmHg 88%
    01:00 +12°C° 0 mm 2 mps 700 mmHg 90%
    02:00 +10°C° 0 mm 2 mps 700 mmHg 90%
    03:00 +10°C° 0 mm 2 mps 699 mmHg 90%
    04:00 +10°C° 0 mm 2 mps 699 mmHg 90%
    05:00 +12°C° 0 mm 2 mps 700 mmHg 86%
    06:00 +14°C° 0 mm 2 mps 700 mmHg 82%
    07:00 +15°C° 0 mm 2 mps 700 mmHg 78%
    08:00 +16°C° 0.1 mm 2 mps 700 mmHg 73%
    09:00 +18°C° 0.1 mm 2 mps 701 mmHg 69%
    10:00 +19°C° 0.1 mm 2 mps 701 mmHg 64%
    11:00 +19°C° 0.9 mm 2 mps 701 mmHg 63%
    12:00 +20°C° 0.9 mm 2 mps 700 mmHg 62%
    13:00 +20°C° 0.9 mm 2 mps 700 mmHg 61%
    14:00 +20°C° 1.1 mm 2 mps 700 mmHg 62%
    15:00 +20°C° 1.1 mm 3 mps 700 mmHg 63%
    16:00 +20°C° 1.1 mm 3 mps 700 mmHg 65%
    17:00 +18°C° 0.4 mm 2 mps 700 mmHg 71%
    18:00 +16°C° 0.4 mm 2 mps 700 mmHg 77%
    19:00 +15°C° 0.4 mm 2 mps 700 mmHg 84%
    20:00 +14°C° 0 mm 2 mps 700 mmHg 86%
    21:00 +13°C° 0 mm 2 mps 700 mmHg 89%
    22:00 +12°C° 0 mm 2 mps 700 mmHg 92%
    23:00 +12°C° 0 mm 2 mps 700 mmHg 92%

    Day after tomorrow, 25 May, Saturday

    Time Temperature Precipitation Wind Pressure Humidity
    00:00 +10°C° 0 mm 2 mps 700 mmHg 92%
    01:00 +10°C° 0 mm 2 mps 700 mmHg 93%
    02:00 +10°C° 0 mm 2 mps 700 mmHg 92%
    03:00 +9°C° 0 mm 2 mps 700 mmHg 91%
    04:00 +9°C° 0 mm 2 mps 700 mmHg 91%
    05:00 +12°C° 0 mm 2 mps 701 mmHg 85%
    06:00 +14°C° 0 mm 1 mps 701 mmHg 79%
    07:00 +16°C° 0 mm 1 mps 702 mmHg 73%
    08:00 +18°C° 0 mm 1 mps 702 mmHg 67%
    09:00 +20°C° 0 mm 1 mps 702 mmHg 60%
    10:00 +22°C° 0 mm 1 mps 703 mmHg 53%
    11:00 +21°C° 0 mm 2 mps 703 mmHg 50%
    12:00 +23°C° 0 mm 2 mps 703 mmHg 48%
    13:00 +24°C° 0 mm 2 mps 702 mmHg 46%
    14:00 +24°C° 0 mm 2 mps 702 mmHg 47%
    15:00 +24°C° 0 mm 2 mps 702 mmHg 49%
    16:00 +24°C° 0 mm 2 mps 702 mmHg 50%
    17:00 +21°C° 0 mm 2 mps 702 mmHg 57%
    18:00 +19°C° 0 mm 2 mps 702 mmHg 63%
    19:00 +16°C° 0 mm 1 mps 701 mmHg 70%
    20:00 +16°C° 0 mm 1 mps 702 mmHg 73%
    21:00 +15°C° 0 mm 1 mps 702 mmHg 76%
    22:00 +15°C° 0 mm 1 mps 702 mmHg 79%
    23:00 +14°C° 0 mm 1 mps 702 mmHg 82%

    26 May, Sunday

    Time Temperature Precipitation Wind Pressure Humidity
    00:00 +14°C° 0 mm 1 mps 702 mmHg 84%
    01:00 +13°C° 0 mm 1 mps 701 mmHg 87%
    02:00 +14°C° 0 mm 1 mps 701 mmHg 86%
    03:00 +14°C° 0 mm 1 mps 701 mmHg 85%
    04:00 +13°C° 0 mm 0 mps 701 mmHg 85%
    05:00 +14°C° 0 mm 0 mps 701 mmHg 81%
    06:00 +18°C° 0 mm 1 mps 702 mmHg 76%
    07:00 +19°C° 0 mm 1 mps 702 mmHg 72%
    08:00 +20°C° 0 mm 1 mps 702 mmHg 68%
    09:00 +20°C° 0 mm 2 mps 703 mmHg 64%
    10:00 +23°C° 0 mm 2 mps 703 mmHg 60%
    11:00 +21°C° 0.4 mm 2 mps 703 mmHg 65%
    12:00 +20°C° 0.4 mm 2 mps 702 mmHg 71%
    13:00 +21°C° 0.4 mm 1 mps 702 mmHg 76%
    14:00 +20°C° 0.1 mm 2 mps 702 mmHg 74%
    15:00 +21°C° 0.1 mm 2 mps 702 mmHg 72%
    16:00 +21°C° 0.1 mm 2 mps 702 mmHg 70%
    17:00 +20°C° 0 mm 2 mps 702 mmHg 76%
    18:00 +19°C° 0 mm 2 mps 701 mmHg 82%
    19:00 +18°C° 0 mm 1 mps 701 mmHg 89%
    20:00 +18°C° 0 mm 1 mps 701 mmHg 90%
    21:00 +16°C° 0 mm 1 mps 701 mmHg 92%
    22:00 +16°C° 0 mm 1 mps 701 mmHg 94%
    23:00 +15°C° 0 mm 1 mps 701 mmHg 94%

    27 May, Monday

    Time Temperature Precipitation Wind Pressure Humidity
    00:00 +15°C° 0 mm 1 mps 701 mmHg 95%
    01:00 +15°C° 0 mm 1 mps 700 mmHg 95%
    02:00 +15°C° 0.1 mm 1 mps 700 mmHg 95%
    03:00 +15°C° 0.1 mm 1 mps 700 mmHg 95%
    04:00 +15°C° 0.1 mm 1 mps 700 mmHg 95%
    05:00 +15°C° 0.1 mm 1 mps 700 mmHg 92%
    06:00 +16°C° 0.1 mm 1 mps 700 mmHg 89%
    07:00 +17°C° 0.1 mm 2 mps 700 mmHg 86%
    08:00 +18°C° 0 mm 2 mps 700 mmHg 81%
    09:00 +19°C° 0 mm 3 mps 700 mmHg 75%
    10:00 +20°C° 0 mm 4 mps 701 mmHg 70%
    11:00 +21°C° 0.1 mm 4 mps 700 mmHg 67%
    12:00 +22°C° 0.1 mm 4 mps 700 mmHg 65%
    13:00 +23°C° 0.1 mm 5 mps 700 mmHg 62%
    14:00 +22°C° 0.3 mm 5 mps 699 mmHg 65%
    15:00 +22°C° 0.3 mm 5 mps 699 mmHg 68%
    16:00 +22°C° 0.3 mm 5 mps 699 mmHg 71%
    17:00 +20°C° 0.6 mm 4 mps 699 mmHg 77%
    18:00 +18°C° 0.6 mm 3 mps 699 mmHg 83%
    19:00 +17°C° 0.6 mm 2 mps 698 mmHg 90%
    20:00 +16°C° 0.1 mm 2 mps 699 mmHg 91%
    21:00 +15°C° 0.1 mm 1 mps 699 mmHg 91%
    22:00 +14°C° 0.1 mm 1 mps 699 mmHg 92%
    23:00 +14°C° 0 mm 1 mps 699 mmHg 92%

    28 May, Tuesday

    Time Temperature Precipitation Wind Pressure Humidity
    00:00 +13°C° 0 mm 1 mps 698 mmHg 92%
    01:00 +13°C° 0 mm 1 mps 698 mmHg 91%
    02:00 +13°C° 0 mm 1 mps 698 mmHg 91%
    03:00 +12°C° 0 mm 1 mps 698 mmHg 91%
    04:00 +12°C° 0 mm 1 mps 698 mmHg 91%
    05:00 +14°C° 0 mm 1 mps 698 mmHg 86%
    06:00 +16°C° 0 mm 1 mps 699 mmHg 81%
    07:00 +18°C° 0 mm 1 mps 699 mmHg 76%
    08:00 +19°C° 0 mm 2 mps 699 mmHg 69%
    09:00 +20°C° 0 mm 2 mps 700 mmHg 62%
    10:00 +21°C° 0 mm 2 mps 700 mmHg 55%
    11:00 +23°C° 0 mm 2 mps 700 mmHg 54%
    12:00 +24°C° 0 mm 3 mps 700 mmHg 53%
    13:00 +25°C° 0 mm 3 mps 700 mmHg 51%
    14:00 +24°C° 0.1 mm 3 mps 700 mmHg 53%
    15:00 +24°C° 0.1 mm 3 mps 700 mmHg 55%
    16:00 +24°C° 0.1 mm 3 mps 700 mmHg 57%
    17:00 +21°C° 0.1 mm 3 mps 700 mmHg 65%
    18:00 +19°C° 0.1 mm 2 mps 700 mmHg 74%
    19:00 +17°C° 0.1 mm 2 mps 700 mmHg 82%
    20:00 +16°C° 0 mm 2 mps 700 mmHg 85%
    21:00 +15°C° 0 mm 2 mps 701 mmHg 89%
    22:00 +14°C° 0 mm 2 mps 701 mmHg 92%
    23:00 +14°C° 0 mm 2 mps 701 mmHg 93%
    Show more